• In Russia
  • List of Countries
  • For 7 days
  • Water Temperature
  • Satellite Maps
  • Weather Map
  • Weather Widgets
  • user-avatar
    Login

    Hourly Weather Zemledelec

    Today, 15 November, Thursday

    Time Temperature Precipitation Wind Pressure Humidity
    00:00 -5°C° 0 mm 5 mps 752 mmHg 52%
    01:00 -4°C° 0 mm 4 mps 752 mmHg 54%
    02:00 -4°C° 0 mm 4 mps 752 mmHg 55%
    03:00 -5°C° 0 mm 4 mps 752 mmHg 57%
    04:00 -5°C° 0 mm 4 mps 752 mmHg 58%
    05:00 -5°C° 0 mm 4 mps 753 mmHg 58%
    06:00 -5°C° 0 mm 3 mps 753 mmHg 59%
    07:00 -5°C° 0 mm 3 mps 753 mmHg 57%
    08:00 -5°C° 0 mm 4 mps 754 mmHg 56%
    09:00 -5°C° 0 mm 4 mps 754 mmHg 54%
    10:00 -5°C° 0 mm 3 mps 755 mmHg 50%
    11:00 -4°C° 0 mm 3 mps 755 mmHg 46%
    12:00 -2°C° 0 mm 3 mps 755 mmHg 42%
    13:00 -2°C° 0 mm 3 mps 755 mmHg 41%
    14:00 -2°C° 0 mm 3 mps 756 mmHg 40%
    15:00 -1°C° 0 mm 3 mps 756 mmHg 39%
    16:00 -2°C° 0 mm 3 mps 756 mmHg 41%
    17:00 -4°C° 0 mm 3 mps 756 mmHg 42%
    18:00 -3°C° 0 mm 2 mps 757 mmHg 44%
    19:00 -3°C° 0 mm 2 mps 757 mmHg 44%
    20:00 -3°C° 0 mm 2 mps 757 mmHg 44%
    21:00 -3°C° 0 mm 2 mps 758 mmHg 43%
    22:00 -4°C° 0 mm 2 mps 758 mmHg 42%
    23:00 -4°C° 0 mm 2 mps 758 mmHg 41%

    Tomorrow, 16 November, Friday

    Time Temperature Precipitation Wind Pressure Humidity
    00:00 -4°C° 0 mm 2 mps 758 mmHg 40%
    01:00 -4°C° 0 mm 2 mps 759 mmHg 39%
    02:00 -4°C° 0 mm 2 mps 759 mmHg 37%
    03:00 -4°C° 0 mm 2 mps 759 mmHg 35%
    04:00 -5°C° 0 mm 2 mps 759 mmHg 34%
    05:00 -5°C° 0 mm 2 mps 759 mmHg 33%
    06:00 -5°C° 0 mm 2 mps 759 mmHg 32%
    07:00 -5°C° 0 mm 2 mps 760 mmHg 31%
    08:00 -5°C° 0 mm 2 mps 760 mmHg 30%
    09:00 -5°C° 0 mm 2 mps 760 mmHg 29%
    10:00 -4°C° 0 mm 2 mps 761 mmHg 27%
    11:00 -3°C° 0 mm 2 mps 761 mmHg 24%
    12:00 -2°C° 0 mm 2 mps 761 mmHg 22%
    13:00 -2°C° 0 mm 2 mps 761 mmHg 22%
    14:00 -2°C° 0 mm 2 mps 760 mmHg 22%
    15:00 -1°C° 0 mm 2 mps 760 mmHg 22%
    16:00 -2°C° 0 mm 2 mps 760 mmHg 23%
    17:00 -3°C° 0 mm 2 mps 760 mmHg 24%
    18:00 -3°C° 0 mm 2 mps 760 mmHg 25%
    19:00 -3°C° 0 mm 2 mps 760 mmHg 25%
    20:00 -4°C° 0 mm 2 mps 760 mmHg 24%
    21:00 -4°C° 0 mm 2 mps 760 mmHg 24%
    22:00 -4°C° 0 mm 2 mps 760 mmHg 23%
    23:00 -4°C° 0 mm 2 mps 760 mmHg 23%

    Day after tomorrow, 17 November, Saturday

    Time Temperature Precipitation Wind Pressure Humidity
    00:00 -4°C° 0 mm 2 mps 760 mmHg 22%
    01:00 -2°C° 0 mm 1 mps 760 mmHg 22%
    02:00 -2°C° 0 mm 1 mps 760 mmHg 21%
    03:00 -2°C° 0 mm 1 mps 760 mmHg 20%
    04:00 -2°C° 0 mm 1 mps 759 mmHg 20%
    05:00 -3°C° 0 mm 1 mps 759 mmHg 20%
    06:00 -3°C° 0 mm 1 mps 759 mmHg 19%
    07:00 -3°C° 0 mm 1 mps 759 mmHg 19%
    08:00 -2°C° 0 mm 1 mps 758 mmHg 18%
    09:00 -2°C° 0 mm 1 mps 758 mmHg 18%
    10:00 -1°C° 0 mm 1 mps 758 mmHg 17%
    11:00 0°C° 0 mm 1 mps 757 mmHg 15%
    12:00 +1°C° 0 mm 1 mps 757 mmHg 14%
    13:00 +1°C° 0 mm 1 mps 756 mmHg 15%
    14:00 +1°C° 0 mm 1 mps 755 mmHg 16%
    15:00 +1°C° 0 mm 1 mps 755 mmHg 17%
    16:00 -2°C° 0 mm 2 mps 754 mmHg 18%
    17:00 -2°C° 0 mm 2 mps 753 mmHg 18%
    18:00 -3°C° 0 mm 2 mps 753 mmHg 19%
    19:00 -3°C° 0 mm 2 mps 752 mmHg 19%
    20:00 -3°C° 0 mm 2 mps 751 mmHg 19%
    21:00 -4°C° 0 mm 3 mps 751 mmHg 20%
    22:00 -4°C° 0 mm 3 mps 750 mmHg 20%
    23:00 -4°C° 0 mm 3 mps 749 mmHg 20%

    18 November, Sunday

    Time Temperature Precipitation Wind Pressure Humidity
    00:00 -4°C° 0 mm 3 mps 749 mmHg 20%
    01:00 -4°C° 0 mm 3 mps 748 mmHg 23%
    02:00 -4°C° 0 mm 3 mps 747 mmHg 25%
    03:00 -4°C° 0 mm 3 mps 747 mmHg 27%
    04:00 -5°C° 0.1 mm 3 mps 746 mmHg 33%
    05:00 -5°C° 0.1 mm 3 mps 745 mmHg 38%
    06:00 -5°C° 0.1 mm 3 mps 744 mmHg 43%
    07:00 -5°C° 0.2 mm 3 mps 744 mmHg 49%
    08:00 -5°C° 0.2 mm 3 mps 744 mmHg 54%
    09:00 -5°C° 0.2 mm 3 mps 744 mmHg 60%
    10:00 -4°C° 0.1 mm 3 mps 743 mmHg 62%
    11:00 -4°C° 0.1 mm 3 mps 743 mmHg 64%
    12:00 -4°C° 0.1 mm 3 mps 743 mmHg 67%
    13:00 -2°C° 0.1 mm 3 mps 743 mmHg 66%
    14:00 -2°C° 0.1 mm 2 mps 743 mmHg 65%
    15:00 -2°C° 0.1 mm 2 mps 743 mmHg 64%
    16:00 -2°C° 0.1 mm 2 mps 743 mmHg 63%
    17:00 -3°C° 0.1 mm 2 mps 743 mmHg 61%
    18:00 -4°C° 0.1 mm 3 mps 743 mmHg 59%
    19:00 -3°C° 0.1 mm 2 mps 743 mmHg 57%
    20:00 -3°C° 0.1 mm 2 mps 744 mmHg 54%
    21:00 -3°C° 0.1 mm 2 mps 744 mmHg 52%
    22:00 -4°C° 0 mm 2 mps 744 mmHg 49%
    23:00 -4°C° 0 mm 2 mps 745 mmHg 46%

    19 November, Monday

    Time Temperature Precipitation Wind Pressure Humidity
    00:00 -4°C° 0 mm 2 mps 745 mmHg 44%
    01:00 -4°C° 0 mm 2 mps 745 mmHg 43%
    02:00 -4°C° 0 mm 2 mps 746 mmHg 42%
    03:00 -5°C° 0 mm 2 mps 746 mmHg 41%
    04:00 -5°C° 0 mm 2 mps 746 mmHg 43%
    05:00 -5°C° 0 mm 2 mps 747 mmHg 45%
    06:00 -5°C° 0 mm 2 mps 747 mmHg 48%
    07:00 -5°C° 0 mm 2 mps 747 mmHg 52%
    08:00 -5°C° 0 mm 2 mps 748 mmHg 56%
    09:00 -5°C° 0 mm 2 mps 748 mmHg 61%
    10:00 -5°C° 0 mm 3 mps 749 mmHg 63%
    11:00 -5°C° 0 mm 3 mps 749 mmHg 65%
    12:00 -4°C° 0 mm 3 mps 749 mmHg 66%
    13:00 -4°C° 0 mm 3 mps 750 mmHg 69%
    14:00 -3°C° 0 mm 2 mps 750 mmHg 71%
    15:00 -3°C° 0 mm 2 mps 750 mmHg 74%
    16:00 -3°C° 0 mm 2 mps 750 mmHg 78%
    17:00 -4°C° 0 mm 2 mps 750 mmHg 82%
    18:00 -4°C° 0 mm 2 mps 751 mmHg 86%
    19:00 -4°C° 0 mm 2 mps 751 mmHg 87%
    20:00 -4°C° 0 mm 2 mps 751 mmHg 88%
    21:00 -4°C° 0 mm 2 mps 751 mmHg 89%
    22:00 -4°C° 0 mm 2 mps 751 mmHg 90%
    23:00 -4°C° 0 mm 2 mps 752 mmHg 90%

    20 November, Tuesday

    Time Temperature Precipitation Wind Pressure Humidity
    00:00 -3°C° 0 mm 2 mps 752 mmHg 91%
    01:00 -3°C° 0 mm 2 mps 752 mmHg 92%
    02:00 -3°C° 0 mm 2 mps 752 mmHg 92%
    03:00 -3°C° 0 mm 2 mps 752 mmHg 93%
    04:00 -4°C° 0 mm 2 mps 752 mmHg 94%
    05:00 -4°C° 0 mm 2 mps 752 mmHg 94%
    06:00 -4°C° 0 mm 2 mps 752 mmHg 95%
    07:00 -4°C° 0 mm 2 mps 752 mmHg 95%
    08:00 -3°C° 0 mm 2 mps 752 mmHg 94%
    09:00 -4°C° 0 mm 3 mps 752 mmHg 94%
    10:00 -2°C° 0 mm 3 mps 752 mmHg 92%
    11:00 -2°C° 0 mm 3 mps 752 mmHg 89%
    12:00 -1°C° 0 mm 3 mps 752 mmHg 87%
    13:00 -1°C° 0 mm 3 mps 752 mmHg 86%
    14:00 -1°C° 0 mm 3 mps 751 mmHg 85%
    15:00 -1°C° 0 mm 3 mps 751 mmHg 84%
    16:00 -2°C° 0 mm 3 mps 751 mmHg 83%
    17:00 -2°C° 0 mm 3 mps 751 mmHg 83%
    18:00 -2°C° 0 mm 3 mps 751 mmHg 83%
    19:00 -2°C° 0 mm 3 mps 751 mmHg 81%
    20:00 -4°C° 0 mm 3 mps 750 mmHg 79%
    21:00 -4°C° 0 mm 3 mps 750 mmHg 77%
    22:00 -4°C° 0 mm 3 mps 750 mmHg 77%
    23:00 -3°C° 0 mm 2 mps 750 mmHg 78%
    Show more